Location: ????????
(55.0097°N, 38.5678°E)
Time: 05:44:52
(UTC+00:00)

Daily predictions for brighter satellites

Satellite Brightness Start Highest point End
(mag) Time Altitude Azimuth Time Altitude Azimuth Time Altitude Azimuth
Cosmos 2221 3.1 00:03:42 34° WSW 00:04:51 41° WNW 00:08:56 10° N
COSMOS 2441 4.3 00:01:06 10° NNE 00:06:03 89° W 00:08:43 27° SSW
Cosmos 2333 Rocket 2.5 00:04:54 27° WSW 00:07:52 58° NW 00:13:28 10° NNE
Lacrosse 5 1.9 00:05:37 32° SW 00:08:00 71° SSE 00:13:06 10° ENE
NOSS 3-1 (C) 4.3 00:02:08 10° NW 00:08:43 66° NNE 00:16:57 10° ESE
ALOS 2.9 00:04:12 10° NNE 00:08:44 51° E 00:12:17 16° S
Cosmos 972 Rocket 4.0 00:07:57 29° SW 00:10:48 76° WNW 00:15:54 10° NNE
Cosmos 44 Rocket 3.4 00:10:18 29° SW 00:12:58 79° SE 00:18:08 10° NE
Cosmos 2360 Rocket 2.7 00:09:55 24° WSW 00:13:04 48° NW 00:18:34 10° NNE
Lacrosse 4 Rocket 3.3 00:15:03 11° WNW 00:17:51 21° NNW 00:20:57 10° NNE
Cosmos 2278 Rocket 2.1 00:13:17 10° NW 00:18:57 68° WSW 00:24:35 10° SSE
Cosmos 1743 4.0 00:16:50 10° NW 00:19:41 22° W 00:19:41 22° W
NOSS 3-4 (A) 3.3 00:16:26 26° SW 00:19:51 85° NW 00:26:13 10° NE
NOSS 3-4 (C) 3.3 00:16:29 26° SW 00:19:54 85° NW 00:26:17 10° NE
Sich 1 2.9 00:16:33 10° NNW 00:20:48 83° W 00:24:33 13° S
Cosmos 1733 3.2 00:18:23 10° N 00:22:01 73° ENE 00:25:37 10° SSE
IDEFIX/ARIANE 42P 3.0 00:17:58 10° N 00:22:56 46° WNW 00:25:43 24° SW
Cosmos 2322 Rocket 3.2 00:19:32 18° W 00:23:09 37° NW 00:28:21 10° NNE
NOSS 2-3 (C) 4.4 00:19:05 10° NW 00:24:24 62° SW 00:31:39 10° SSE
BlueWalker 3 2.3 00:23:38 31° WSW 00:24:47 40° SSW 00:28:23 10° SE
EO 1 Delta rocket 4.5 00:20:06 10° NNE 00:24:50 53° E 00:29:21 10° S
SAR-Lupe-1 4.0 00:21:30 10° NNE 00:25:09 87° WNW 00:26:59 27° SSW
MSX 4.1 00:21:48 10° N 00:27:27 54° WNW 00:31:06 22° SW
Cosmos 1743 Rocket 3.4 00:24:04 10° NNW 00:28:25 74° W 00:32:27 12° S
NOSS 2-3 (D) 4.4 00:24:15 10° NW 00:29:32 61° SW 00:36:44 10° SSE
Cosmos 2219 Rocket 2.4 00:27:22 23° SW 00:30:50 60° NW 00:36:24 10° NNE
Cosmos 1538 Rocket 4.1 00:26:59 19° SSW 00:30:50 77° ESE 00:36:12 10° NNE
ATLAS 3B R/B 3.7 00:23:45 10° NW 00:31:21 58° NNE 00:39:03 10° ESE
Cosmos 192 4.4 00:27:41 10° NNW 00:32:30 57° WSW 00:37:17 10° S
Gbstr 26 Del rocket 3.7 00:31:34 24° SSW 00:33:16 33° SSE 00:36:43 10° E
Cosmos 1536 3.2 00:30:19 10° NNW 00:34:00 41° W 00:35:46 25° SSW
Meteor 2-10 4.1 00:28:41 10° NNW 00:34:16 76° W 00:39:57 10° S
Cosmos 1420 Rocket 4.1 00:30:05 10° NNW 00:35:21 80° ENE 00:40:38 10° SSE
Cosmos 1633 Rocket 4.1 00:31:25 10° N 00:35:38 47° ENE 00:39:50 10° SSE
SAR-Lupe-4 3.6 00:32:44 10° N 00:36:17 63° WNW 00:38:09 26° SW
SWAS 4.3 00:32:21 10° NW 00:36:36 88° SW 00:40:48 10° SSE
COBE Rocket 4.3 00:32:35 10° N 00:37:02 42° WNW 00:39:40 22° SW
NOSS 7 (E) 4.3 00:34:16 10° WNW 00:37:15 51° SW 00:40:35 10° SSE
NOSS 2-2 (E) 4.2 00:33:17 10° WNW 00:37:21 41° SW 00:42:51 10° SSE
Cosmos 1340 Rocket 4.5 00:34:05 10° SSE 00:37:29 31° E 00:40:56 10° NNE
Cosmos 2056 Rocket 3.8 00:33:26 10° NNW 00:38:50 75° ENE 00:44:15 10° SSE
Cosmos 1805 3.5 00:36:06 10° N 00:39:49 66° ENE 00:43:30 10° SSE
GP-B 3.2 00:35:36 10° N 00:39:58 61° W 00:43:17 17° SSW
SL-16 R/B 3.8 00:35:17 10° W 00:39:58 26° NNW 00:44:44 10° NNE
Meteor 1-28 Rocket 4.3 00:45:44 22° WSW 00:46:28 23° W 00:49:28 10° NW
Cosmos 1092 Rocket 4.0 00:42:22 10° S 00:48:31 83° E 00:54:43 10° NNE
ADEOS II 2.4 00:44:14 10° N 00:49:19 52° WNW 00:53:12 17° SW
CZ-2C R/B 3.4 00:45:31 10° NNE 00:50:32 49° E 00:55:32 10° S
FENGYUN 3A 3.9 00:45:59 10° N 00:51:19 57° WNW 00:55:38 16° SW
Cosmos 1624 Rocket 4.0 00:46:05 10° NNW 00:51:22 87° ENE 00:56:36 10° SSE
NOSS 2-2 (D) 4.2 00:47:41 10° WNW 00:51:40 41° SW 00:57:05 10° SSE
Meteor 1-19 Rocket 4.4 00:48:16 10° SSW 00:54:11 88° WNW 01:00:16 10° NNE
Cosmos 1726 3.1 00:51:42 10° NW 00:54:11 21° W 00:54:44 20° WSW
Cosmos 2026 Rocket 4.1 00:50:13 10° S 00:56:32 89° WNW 01:02:58 10° N
SL-16 R/B 3.2 00:51:35 12° SSW 00:56:45 35° W 01:02:24 10° NNW
Okean 1 3.3 00:54:37 17° SSW 00:57:21 56° WNW 01:01:08 10° N
CZ-2D R/B 3.1 00:55:43 10° N 01:00:27 34° WNW 01:04:21 14° WSW
ATLAS 5 CENTAUR R/B 2.0 00:56:49 10° NW 01:01:24 83° NE 01:07:06 10° SE
Cosmos 1461 3.7 00:59:25 10° WNW 01:02:35 24° WSW 01:05:43 10° S
Cosmos 923 Rocket 4.2 01:02:09 10° SSW 01:07:21 71° ESE 01:12:38 10° NNE
Envisat 3.1 01:02:16 10° NNE 01:07:23 79° ESE 01:12:28 10° SSW
Cosmos 1151 Rocket 3.0 01:04:13 10° SSW 01:08:31 76° WNW 01:12:53 10° N
RESURS DK-1 2.3 01:06:15 15° SW 01:09:39 83° NW 01:13:45 10° NE
Intercosmos 25 Rocket 3.2 01:15:27 10° NNW 01:18:38 58° W 01:22:40 10° S
Cosmos 1766 3.7 01:15:40 10° N 01:19:21 61° ENE 01:23:00 10° SSE
Cosmos 921 Rocket 4.1 01:15:29 10° S 01:19:32 44° ESE 01:23:40 10° NE
Cosmos 1943 Rocket 2.5 01:14:16 10° NW 01:19:37 44° WSW 01:24:57 10° S
ATLAS 2AS CENTAUR R/B 4.0 01:13:09 10° S 01:19:49 38° ESE 01:26:17 10° NE
Cosmos 1371 Rocket 4.0 01:14:58 10° NNW 01:20:06 59° WSW 01:25:16 10° S
Meteor 1-27 Rocket 3.9 01:14:51 10° SSW 01:20:32 57° WNW 01:26:09 10° N
Cosmos 1470 Rocket 3.7 01:17:05 10° N 01:21:29 81° ENE 01:25:54 10° SSE
Cosmos 1975 2.8 01:19:07 10° NNW 01:22:53 53° W 01:26:38 10° S
Thor Agena Rocket 3.7 01:18:14 10° NNE 01:23:19 77° ESE 01:28:22 10° SSW
NOAA 11 4.2 01:19:44 10° NNE 01:25:13 89° ESE 01:30:41 10° SSW
Meteor 2-4 Rocket 3.8 01:21:01 10° S 01:26:26 83° ESE 01:32:02 10° NNE
H-2A R/B 3.7 01:22:16 10° NNE 01:26:49 35° E 01:31:25 10° SSE
COSMOS 2428 3.2 01:22:41 11° WSW 01:28:01 50° NW 01:33:35 10° NNE
Cosmos 1340 2.6 01:25:01 10° NNW 01:28:21 49° W 01:31:41 10° S
Cosmos 2297 3.9 01:22:42 10° NNW 01:28:30 85° NE 01:34:16 10° SE
CZ-4 R/B 3.9 01:23:52 10° NNE 01:28:38 62° WNW 01:33:17 10° SSW
CZ-2C R/B 4.5 01:31:52 10° WSW 01:33:58 12° W 01:36:04 10° WNW
Cosmos 1484 Rocket 4.3 01:31:16 10° NNE 01:34:37 34° E 01:37:56 10° SSE
CZ-2C R/B 4.2 01:30:27 10° N 01:34:38 27° WNW 01:38:58 10° WSW
Cosmos 1666 Rocket 3.9 01:30:42 10° NNW 01:34:58 45° W 01:39:12 10° SSW
S3M 4.1 01:29:32 10° N 01:35:43 86° E 01:41:56 10° S
Cosmos 2237 Rocket 2.3 01:30:06 10° SW 01:35:47 82° NW 01:41:32 10° NNE
NOSS 3-1 (A) 4.1 01:29:11 10° NW 01:36:03 87° NE 01:44:32 10° SE
Cosmos 1980 3.8 01:31:21 10° SW 01:37:01 77° NW 01:42:43 10° NNE
Cosmos 2369 Rocket 2.4 01:32:08 10° NNW 01:37:47 78° NE 01:43:24 10° SE
Cosmos 1626 2.1 01:36:09 10° S 01:39:26 71° E 01:42:45 10° NNE
BREEZE-M DEB (TANK) 1.9 01:38:03 10° WSW 01:40:16 37° SSE 01:42:13 10° E
Resurs 1-4 Rocket 3.8 01:37:31 10° N 01:41:08 19° NW 01:44:45 10° W
USA 215 3.5 01:37:29 10° E 01:44:02 77° N 01:50:35 10° W
ALOS 3.3 01:41:48 10° N 01:45:46 29° WNW 01:49:44 10° WSW
Cosmos 2112 Rocket 4.1 01:41:33 10° SSW 01:46:54 90° W 01:52:18 10° NNE
Cosmos 1933 Rocket 3.7 01:44:26 10° N 01:48:51 81° ENE 01:53:12 10° SSE
DMSP B5D2-2 4.4 01:44:33 10° S 01:49:33 46° W 01:54:34 10° NNW
YAOGAN 11 4.2 01:45:12 10° SSE 01:49:43 89° WSW 01:54:18 10° NNW
Lacrosse 5 2.1 01:45:59 10° W 01:51:06 71° N 01:56:14 10° E
Cosmos 2266 Rocket 4.2 01:45:46 10° S 01:51:49 75° E 01:57:51 10° NNE
